EW5390 Weather Reports


time (UTC)temp
C
wind
direction
speed
KPH
gust
KPH
rain 1hr
cm
rain 24hr
cm
rain mn
cm
humidity
%
barometer
mb
20260507040556 17 0 0.0 0.0 0.00 0.08 0.00 94 1009.1
20260507035554 17 0 0.0 0.0 0.00 0.08 0.08 94 1008.7
20260507035054 16 0 0.0 0.0 0.00 0.08 0.08 94 1008.8
20260507034556 16 0 0.0 0.0 0.00 0.08 0.08 94 1008.9
20260507034055 16 0 0.0 0.0 0.00 0.08 0.08 94 1008.9
20260507033554 16 0 0.0 0.0 0.00 0.08 0.08 93 1008.9
20260507033110 16 0 0.0 0.0 0.00 0.08 0.08 93 1008.9
20260507032553 16 0 0.0 0.0 0.00 0.08 0.08 93 1008.7
20260507032054 16 0 0.0 0.0 0.00 0.08 0.08 93 1008.7
20260507031600 16 0 0.0 0.0 0.00 0.08 0.08 93 1008.7
20260507031053 16 0 0.0 0.0 0.00 0.08 0.08 93 1008.7
20260507030553 17 0 0.0 0.0 0.00 0.08 0.08 93 1008.9
20260507030109 17 0 0.0 0.0 0.00 0.08 0.08 93 1008.9
20260507025556 17 0 0.0 0.0 0.00 0.08 0.08 93 1008.7
20260507025054 17 0 0.0 0.0 0.00 0.08 0.08 93 1008.7
20260507024614 17 0 0.0 0.0 0.00 0.08 0.08 93 1008.7
20260507024054 17 0 0.0 0.0 0.00 0.08 0.08 92 1008.7
20260507023554 17 0 0.0 0.0 0.00 0.08 0.08 92 1008.9
20260507023057 17 0 0.0 0.0 0.00 0.08 0.08 92 1009.0
20260507022554 17 0 0.0 0.0 0.00 0.08 0.08 92 1008.8
20260507022054 17 0 0.0 0.0 0.00 0.08 0.08 92 1008.9
20260507021605 17 0 0.0 0.0 0.00 0.08 0.08 92 1009.0
20260507021057 17 0 0.0 0.0 0.00 0.08 0.08 92 1009.1
20260507020554 17 0 0.0 0.0 0.00 0.08 0.08 92 1009.3
20260507020104 17 0 0.0 0.0 0.00 0.08 0.08 91 1009.5
20260507015552 17 0 0.0 0.0 0.00 0.08 0.08 91 1009.8
20260507015055 17 0 0.0 0.0 0.00 0.08 0.08 91 1009.8
20260507014606 17 0 0.0 0.0 0.00 0.08 0.08 91 1009.7
20260507014054 17 0 0.0 0.0 0.00 0.08 0.08 90 1009.8
20260507013556 17 0 0.0 0.0 0.00 0.08 0.08 90 1009.6
20260507013103 17 0 0.0 0.0 0.00 0.08 0.08 90 1009.4
20260507012555 17 0 0.0 0.0 0.00 0.08 0.08 90 1009.3
20260507012053 18 0 0.0 0.0 0.00 0.08 0.08 89 1009.3
20260507011559 18 0 0.0 0.0 0.00 0.08 0.08 89 1009.4
20260507011054 18 0 0.0 0.0 0.00 0.08 0.08 89 1009.4
20260507010554 18 0 0.0 0.0 0.00 0.08 0.08 89 1009.3
20260507010059 18 0 0.0 0.0 0.00 0.08 0.08 88 1009.3
20260507005554 18 0 0.0 0.0 0.00 0.08 0.08 88 1009.4
20260507005053 18 0 0.0 0.0 0.00 0.08 0.08 88 1009.3
20260507004558 18 0 0.0 0.0 0.00 0.08 0.08 88 1009.3
20260507004053 18 0 0.0 0.0 0.00 0.08 0.08 87 1009.4
20260507003553 18 0 0.0 0.0 0.00 0.08 0.08 87 1009.5
20260507003113 18 0 0.0 0.0 0.00 0.08 0.08 86 1009.3
20260507002558 18 0 0.0 0.0 0.00 0.08 0.08 86 1009.3
20260507002057 19 0 0.0 0.0 0.00 0.08 0.08 86 1009.2
20260507001556 19 0 0.0 0.0 0.00 0.08 0.08 86 1009.1
20260507001059 19 0 0.0 0.0 0.00 0.08 0.08 86 1008.9
20260507000557 19 0 0.0 0.0 0.00 0.08 0.08 85 1008.8
20260507000056 19 0 0.0 0.0 0.00 0.08 0.08 85 1008.9
20260506235553 20 0 0.0 0.0 0.00 0.08 0.08 84 1008.9
20260506235054 20 0 0.0 0.0 0.00 0.08 0.08 84 1008.8
20260506234605 20 0 0.0 1.6 0.00 0.08 0.08 84 1008.7
20260506234053 20 0 0.0 1.6 0.00 0.08 0.08 84 1008.7
20260506233553 20 0 0.0 3.2 0.00 0.08 0.08 83 1008.8
20260506233058 20 0 0.0 3.2 0.00 0.08 0.08 83 1008.9
20260506232552 20 312 0.0 3.2 0.00 0.08 0.08 83 1008.9
20260506232055 20 318 1.6 3.2 0.00 0.08 0.08 83 1008.8
20260506231556 20 318 1.6 4.8 0.00 0.08 0.08 83 1008.8
20260506231056 20 0 1.6 4.8 0.00 0.08 0.08 82 1008.7
20260506230552 20 318 0.0 4.8 0.00 0.08 0.08 82 1008.8
20260506225555 20 326 0.0 3.2 0.00 0.08 0.08 82 1008.8
20260506225055 20 326 0.0 3.2 0.00 0.08 0.08 82 1008.7
20260506224559 20 326 0.0 4.8 0.00 0.08 0.08 82 1008.8
20260506224051 20 2 0.0 4.8 0.00 0.08 0.08 82 1008.7
20260506223555 20 325 0.0 6.4 0.00 0.08 0.08 82 1008.8
20260506223055 21 322 0.0 6.4 0.00 0.08 0.08 82 1008.7
20260506222555 21 234 0.0 6.4 0.00 0.08 0.08 82 1008.6
20260506222053 21 317 0.0 4.8 0.00 0.08 0.08 81 1008.7
20260506221553 21 317 0.0 4.8 0.00 0.08 0.08 81 1008.8
20260506221052 21 278 1.6 4.8 0.00 0.08 0.08 80 1008.9
20260506220553 21 316 1.6 6.4 0.00 0.08 0.08 81 1008.7
20260506220054 21 314 3.2 6.4 0.00 0.08 0.08 80 1008.7
20260506215552 21 319 1.6 6.4 0.00 0.08 0.08 80 1008.6
20260506215052 21 0 0.0 6.4 0.00 0.08 0.08 81 1008.6
20260506214559 21 322 1.6 6.4 0.00 0.08 0.08 80 1008.6
20260506214054 21 353 3.2 6.4 0.00 0.08 0.08 80 1008.6
20260506213553 21 257 1.6 6.4 0.00 0.08 0.08 80 1008.5
20260506213107 21 320 1.6 6.4 0.00 0.08 0.08 80 1008.2
20260506212555 21 320 1.6 12.9 0.00 0.08 0.08 81 1008.4
20260506212055 21 289 1.6 12.9 0.00 0.08 0.08 80 1008.5
20260506211554 21 352 1.6 6.4 0.00 0.08 0.08 80 1008.4
20260506211055 21 267 1.6 6.4 0.00 0.08 0.08 80 1008.2
20260506210555 21 29 1.6 4.8 0.00 0.08 0.08 80 1008.3
20260506210136 21 307 0.0 4.8 0.00 0.08 0.08 80 1008.3
20260506205554 21 240 1.6 6.4 0.00 0.08 0.08 80 1008.2
20260506205055 21 8 1.6 6.4 0.00 0.08 0.08 79 1008.2
20260506204556 21 11 1.6 12.9 0.00 0.08 0.08 80 1008.0
20260506204053 21 273 3.2 12.9 0.00 0.08 0.08 79 1008.0
20260506203552 21 311 1.6 9.7 0.00 0.08 0.08 80 1008.1
20260506203059 21 323 1.6 9.7 0.00 0.08 0.08 80 1008.0
20260506202552 21 329 1.6 9.7 0.00 0.08 0.08 79 1007.8
20260506202054 21 172 1.6 4.8 0.00 0.08 0.08 79 1008.0
20260506201556 21 330 1.6 6.4 0.00 0.08 0.08 80 1008.0
20260506201054 21 274 0.0 6.4 0.00 0.08 0.08 80 1008.1
20260506200552 21 319 0.0 4.8 0.00 0.08 0.08 80 1007.9
20260506200059 21 287 1.6 4.8 0.00 0.08 0.08 80 1008.1
20260506195553 21 333 1.6 3.2 0.00 0.08 0.08 81 1008.2
20260506195054 21 246 1.6 4.8 0.00 0.08 0.08 80 1008.3
20260506194552 21 22 1.6 4.8 0.00 0.08 0.08 80 1008.3
20260506194052 21 315 1.6 4.8 0.00 0.08 0.08 81 1008.3
20260506193558 21 297 1.6 4.8 0.00 0.08 0.08 81 1008.4
20260506193054 20 326 1.6 4.8 0.00 0.08 0.08 80 1008.4
20260506192552 20 63 1.6 4.8 0.00 0.08 0.08 80 1008.4
20260506192054 20 322 1.6 8.0 0.00 0.08 0.08 80 1008.4
20260506191555 21 68 1.6 8.0 0.00 0.08 0.08 80 1008.5
20260506191054 21 229 1.6 6.4 0.00 0.08 0.08 80 1008.6
20260506190557 21 40 1.6 6.4 0.00 0.08 0.08 80 1008.5
20260506190058 21 177 0.0 8.0 0.00 0.08 0.08 80 1008.5
20260506185553 21 219 3.2 8.0 0.00 0.08 0.08 81 1008.8
20260506185053 20 155 1.6 9.7 0.00 0.08 0.08 81 1008.8
20260506184554 20 312 1.6 9.7 0.00 0.08 0.08 81 1008.7
20260506184053 20 299 3.2 9.7 0.00 0.08 0.08 81 1008.8
20260506183555 20 89 1.6 8.0 0.00 0.08 0.08 82 1009.0
20260506183054 20 248 1.6 6.4 0.00 0.08 0.08 82 1008.9
20260506182552 20 115 1.6 8.0 0.00 0.08 0.08 82 1009.0
20260506182055 20 238 1.6 8.0 0.00 0.08 0.08 83 1009.0
20260506181555 20 140 3.2 14.5 0.00 0.08 0.08 83 1009.1
20260506181055 20 48 3.2 14.5 0.00 0.08 0.08 84 1009.3
20260506180556 20 276 1.6 9.7 0.00 0.08 0.08 84 1009.4
20260506180054 20 181 1.6 9.7 0.00 0.08 0.08 84 1009.5
20260506175552 20 271 1.6 8.0 0.00 0.08 0.08 84 1009.3
20260506175053 19 69 3.2 9.7 0.00 0.08 0.08 85 1009.4
20260506174558 19 271 3.2 9.7 0.00 0.08 0.08 85 1009.4
20260506174056 19 218 3.2 12.9 0.00 0.08 0.08 87 1009.3
20260506173553 19 81 3.2 12.9 0.00 0.08 0.08 88 1009.4
20260506173124 19 126 1.6 9.7 0.00 0.08 0.08 88 1009.3
20260506172552 18 153 1.6 9.7 0.00 0.08 0.08 89 1009.2
20260506172055 18 0 1.6 6.4 0.00 0.08 0.08 90 1009.3
20260506171610 18 214 0.0 4.8 0.00 0.08 0.08 90 1009.4
20260506171053 18 196 0.0 4.8 0.00 0.08 0.08 91 1009.5
20260506170552 18 101 1.6 4.8 0.00 0.08 0.08 90 1009.8
20260506170055 18 60 1.6 6.4 0.03 0.08 0.08 90 1009.8
20260506165553 18 136 1.6 6.4 0.05 0.08 0.08 90 1009.9
20260506165052 18 183 1.6 9.7 0.05 0.08 0.08 90 1009.9
20260506164606 18 171 3.2 9.7 0.05 0.08 0.08 90 1009.8
20260506164055 18 50 1.6 4.8 0.08 0.08 0.08 91 1009.8
20260506163552 17 93 1.6 11.3 0.08 0.08 0.08 92 1009.9
20260506163106 17 171 1.6 11.3 0.08 0.08 0.08 91 1009.8
20260506162552 17 136 1.6 11.3 0.08 0.08 0.08 90 1010.1
20260506162056 17 95 3.2 11.3 0.08 0.08 0.08 90 1010.3
20260506161636 18 131 1.6 11.3 0.08 0.08 0.08 90 1010.6
20260506161052 18 92 0.0 11.3 0.08 0.08 0.08 89 1010.9
20260506160555 18 228 3.2 11.3 0.08 0.08 0.08 86 1010.9
20260506160108 18 165 0.0 8.0 0.05 0.05 0.05 86 1011.1
20260506155552 19 102 0.0 8.0 0.03 0.03 0.03 84 1011.2
20260506155053 20 32 1.6 12.9 0.03 0.03 0.03 82 1011.4
20260506154600 20 205 1.6 12.9 0.03 0.03 0.03 81 1011.3
20260506154053 20 12 1.6 12.9 0.00 0.00 0.00 79 1011.3
20260506153553 20 157 0.0 4.8 0.00 0.00 0.00 78 1011.2
20260506153108 20 330 1.6 8.0 0.00 0.00 0.00 77 1011.1
20260506152552 20 309 1.6 8.0 0.00 0.00 0.00 78 1011.1
20260506152058 20 239 0.0 3.2 0.00 0.00 0.00 77 1011.2
20260506151607 20 36 0.0 3.2 0.00 0.00 0.00 78 1011.2
20260506151053 20 167 1.6 3.2 0.00 0.00 0.00 77 1011.2
20260506150553 20 268 0.0 3.2 0.00 0.00 0.00 76 1011.1
20260506150057 21 231 0.0 4.8 0.00 0.00 0.00 75 1011.1
20260506145556 21 26 1.6 11.3 0.00 0.00 0.00 74 1011.1
20260506145055 21 34 1.6 11.3 0.00 0.00 0.00 71 1011.2
20260506144556 21 317 3.2 9.7 0.00 0.00 0.00 71 1011.1
20260506144054 21 286 1.6 9.7 0.00 0.00 0.00 70 1011.1
20260506143555 21 278 1.6 9.7 0.00 0.00 0.00 70 1011.1
20260506143054 21 303 1.6 3.2 0.00 0.00 0.00 70 1011.1
20260506142556 21 290 0.0 3.2 0.00 0.00 0.00 71 1011.0
20260506142059 21 0 0.0 3.2 0.00 0.00 0.00 70 1011.1
20260506141556 21 0 0.0 6.4 0.00 0.00 0.00 71 1011.0
20260506141055 21 149 1.6 6.4 0.00 0.00 0.00 72 1011.0
20260506140555 21 227 1.6 6.4 0.00 0.00 0.00 72 1011.0
20260506140056 21 133 1.6 6.4 0.00 0.00 0.00 70 1010.9
20260506135555 21 53 1.6 6.4 0.00 0.00 0.00 72 1011.0
20260506135052 21 155 1.6 6.4 0.00 0.00 0.00 73 1011.0
20260506134555 20 48 0.0 6.4 0.00 0.00 0.00 73 1011.0
20260506134055 20 150 1.6 14.5 0.00 0.00 0.00 73 1011.1
20260506133553 20 248 1.6 14.5 0.00 0.00 0.00 74 1011.0
20260506133057 20 103 1.6 12.9 0.00 0.00 0.00 74 1011.1
20260506132554 20 344 4.8 12.9 0.00 0.00 0.00 73 1011.0
20260506132054 20 152 1.6 8.0 0.00 0.00 0.00 73 1011.1
20260506131602 20 174 1.6 8.0 0.00 0.00 0.00 74 1011.2
20260506131054 20 159 1.6 9.7 0.00 0.00 0.00 75 1011.1
20260506130554 20 193 1.6 9.7 0.00 0.00 0.00 75 1011.2
20260506130126 20 53 0.0 8.0 0.00 0.00 0.00 75 1011.1
20260506125554 19 43 0.0 8.0 0.00 0.00 0.00 76 1011.3
20260506125056 19 62 1.6 6.4 0.00 0.00 0.00 76 1011.3
20260506124600 19 188 1.6 4.8 0.00 0.00 0.00 76 1011.4
20260506124054 19 160 1.6 6.4 0.00 0.00 0.00 76 1011.5
20260506123553 18 224 1.6 8.0 0.00 0.00 0.00 76 1011.5
20260506123054 18 145 1.6 8.0 0.00 0.00 0.00 77 1011.4
20260506122554 18 146 1.6 9.7 0.00 0.00 0.00 77 1011.5
20260506122053 18 27 1.6 9.7 0.00 0.00 0.00 77 1011.5
20260506121554 18 227 0.0 4.8 0.00 0.00 0.00 77 1011.6
20260506121058 18 231 1.6 6.4 0.00 0.00 0.00 77 1011.6
20260506120554 18 131 1.6 6.4 0.00 0.00 0.00 78 1011.4
20260506120106 18 232 1.6 4.8 0.00 0.00 0.00 78 1011.5
20260506115555 18 65 0.0 8.0 0.00 0.00 0.00 78 1011.5
20260506115054 18 122 0.0 8.0 0.00 0.00 0.00 78 1011.4
20260506114556 18 265 1.6 6.4 0.00 0.00 0.00 78 1011.3
20260506114054 18 220 1.6 6.4 0.00 0.00 0.00 78 1011.3
20260506113553 18 50 1.6 6.4 0.00 0.00 0.00 78 1011.3
20260506113100 18 115 0.0 6.4 0.00 0.00 0.00 78 1011.3
20260506112555 18 243 0.0 6.4 0.00 0.00 0.00 78 1011.3
20260506112054 17 163 1.6 6.4 0.00 0.00 0.00 79 1011.2
20260506111554 17 67 1.6 6.4 0.00 0.00 0.00 79 1011.2
20260506111054 17 207 1.6 9.7 0.00 0.00 0.00 79 1011.2
20260506110553 17 197 3.2 9.7 0.00 0.00 0.00 79 1011.2
20260506110106 17 212 1.6 6.4 0.00 0.00 0.00 79 1011.3
20260506105553 17 170 1.6 4.8 0.00 0.00 0.00 80 1011.2
20260506105053 17 66 1.6 6.4 0.00 0.00 0.00 80 1011.2
20260506104559 17 232 1.6 6.4 0.00 0.00 0.00 80 1011.1
20260506104052 17 109 1.6 6.4 0.00 0.00 0.00 81 1011.0
20260506103552 17 160 1.6 6.4 0.00 0.00 0.00 81 1011.1
20260506103100 17 166 0.0 4.8 0.00 0.00 0.00 81 1011.2
20260506102553 17 180 1.6 4.8 0.00 0.00 0.00 81 1011.2
20260506102053 17 172 0.0 4.8 0.00 0.00 0.00 81 1011.3
20260506101620 17 130 1.6 4.8 0.00 0.00 0.00 82 1011.2
20260506101053 17 148 0.0 3.2 0.00 0.00 0.00 82 1011.3
20260506100553 17 142 0.0 3.2 0.00 0.00 0.00 82 1011.2
20260506100119 17 169 1.6 4.8 0.00 0.00 0.00 82 1011.3
20260506095556 17 203 1.6 4.8 0.00 0.00 0.00 82 1011.3
20260506095053 17 127 0.0 6.4 0.00 0.00 0.00 82 1011.1
20260506094553 17 223 0.0 8.0 0.00 0.00 0.00 82 1011.1
20260506094052 17 217 1.6 8.0 0.00 0.00 0.00 81 1010.9
20260506093552 17 70 1.6 8.0 0.00 0.00 0.00 82 1010.9
20260506093100 17 151 1.6 8.0 0.00 0.00 0.00 82 1011.0
20260506092553 17 340 1.6 8.0 0.00 0.00 0.00 82 1010.9
20260506092053 17 238 0.0 6.4 0.00 0.00 0.00 82 1011.1
20260506091555 17 169 1.6 8.0 0.00 0.00 0.00 82 1011.1
20260506091055 17 155 1.6 8.0 0.00 0.00 0.00 82 1011.0
20260506090552 17 172 1.6 6.4 0.00 0.00 0.00 81 1011.0
20260506090058 17 143 1.6 8.0 0.00 0.00 0.00 81 1011.1
20260506085555 17 113 1.6 11.3 0.00 0.00 0.00 81 1011.1
20260506085057 17 227 3.2 11.3 0.00 0.00 0.00 81 1011.0
20260506084621 17 158 1.6 8.0 0.00 0.00 0.00 81 1011.2
20260506084054 17 220 1.6 8.0 0.00 0.00 0.00 81 1011.1
20260506083555 17 155 1.6 8.0 0.00 0.00 0.00 81 1011.2
20260506083056 17 101 1.6 8.0 0.00 0.00 0.00 81 1011.3
20260506082555 17 176 1.6 8.0 0.00 0.00 0.00 82 1011.3
20260506082056 17 195 1.6 8.0 0.00 0.00 0.00 82 1011.4
20260506081557 17 189 1.6 8.0 0.00 0.00 0.00 82 1011.3
20260506081054 17 169 1.6 6.4 0.00 0.00 0.00 82 1011.4
20260506080555 17 188 1.6 4.8 0.00 0.00 0.00 82 1011.4
20260506073056 18 154 1.6 4.8 0.00 0.00 0.00 81 1011.4
20260506072554 18 232 1.6 11.3 0.00 0.00 0.00 80 1011.4
20260506072054 18 68 1.6 11.3 0.00 0.00 0.00 80 1011.4
20260506071559 18 226 1.6 6.4 0.00 0.00 0.00 80 1011.4
20260506071055 18 232 1.6 6.4 0.00 0.00 0.00 80 1011.4
20260506070553 18 0 1.6 6.4 0.00 0.00 0.00 80 1011.4
20260506062053 18 152 1.6 8.0 0.00 0.00 0.00 79 1011.5
20260506061554 19 125 0.0 6.4 0.00 0.00 0.00 79 1011.5
20260506061056 19 210 1.6 8.0 0.00 0.00 0.00 79 1011.5
20260506060556 19 221 1.6 8.0 0.00 0.00 0.00 78 1011.5
20260506051052 20 0 1.6 4.8 0.00 0.00 0.00 76 1011.9
20260506050553 20 0 0.0 3.2 0.00 0.00 0.00 77 1011.9
20260506050103 20 144 1.6 4.8 0.00 0.00 0.00 76 1012.0
20260506045052 20 53 0.0 8.0 0.00 0.00 0.00 76 1012.0
20260506044704 20 164 1.6 8.0 0.00 0.00 0.00 76 1012.0
20260506044053 20 152 0.0 4.8 0.00 0.00 0.00 76 1012.1
20260506043556 20 178 0.0 8.0 0.00 0.00 0.00 76 1012.1
20260506043108 20 168 1.6 8.0 0.00 0.00 0.00 77 1012.1
20260506042552 20 167 0.0 6.4 0.00 0.00 0.00 77 1012.0
20260506042051 20 145 1.6 6.4 0.00 0.00 0.00 77 1012.0
20260506041605 20 0 0.0 4.8 0.00 0.00 0.00 77 1012.0
20260506041053 20 0 1.6 4.8 0.00 0.00 0.00 77 1011.9